TimeCDT,TemperatureF,Dew PointF,Humidity,Sea Level PressureIn,VisibilityMPH,Wind Direction,Wind SpeedMPH,Gust SpeedMPH,PrecipitationIn,Events,Conditions,WindDirDegrees,DateUTC
12:15 AM,62.6,55.4,77,30.15,10.0,NNE,5.8,-,N/A,,Clear,20,2013-08-17 05:15:00
12:35 AM,62.6,55.4,77,30.15,10.0,NNE,3.5,-,N/A,,Clear,30,2013-08-17 05:35:00
12:55 AM,62.6,55.4,77,30.15,10.0,NNE,4.6,-,N/A,,Clear,30,2013-08-17 05:55:00
1:15 AM,62.6,55.4,77,30.14,10.0,North,4.6,-,N/A,,Scattered Clouds,10,2013-08-17 06:15:00
1:35 AM,62.6,55.4,77,30.14,10.0,North,4.6,-,N/A,,Partly Cloudy,10,2013-08-17 06:35:00
1:55 AM,62.6,55.4,77,30.14,10.0,North,3.5,-,N/A,,Mostly Cloudy,10,2013-08-17 06:55:00
2:15 AM,62.6,55.4,77,30.14,10.0,NNE,4.6,-,N/A,,Overcast,20,2013-08-17 07:15:00
2:35 AM,62.6,55.4,77,30.14,10.0,North,3.5,-,N/A,,Mostly Cloudy,10,2013-08-17 07:35:00
2:55 AM,62.6,55.4,77,30.14,10.0,NNE,3.5,-,N/A,,Mostly Cloudy,20,2013-08-17 07:55:00
3:15 AM,62.6,55.4,77,30.14,10.0,North,5.8,-,N/A,,Overcast,10,2013-08-17 08:15:00
3:35 AM,62.6,55.4,77,30.14,10.0,NNE,4.6,-,N/A,,Overcast,30,2013-08-17 08:35:00
3:55 AM,62.6,55.4,77,30.14,10.0,NNE,4.6,-,N/A,,Overcast,20,2013-08-17 08:55:00
4:15 AM,62.6,55.4,77,30.14,10.0,NNE,4.6,-,N/A,,Overcast,30,2013-08-17 09:15:00
4:35 AM,62.6,55.4,77,30.14,10.0,NNE,3.5,-,N/A,,Overcast,30,2013-08-17 09:35:00
4:55 AM,62.6,55.4,77,30.14,10.0,NNE,4.6,-,N/A,,Overcast,20,2013-08-17 09:55:00
5:15 AM,62.6,55.4,77,30.14,10.0,NNE,4.6,-,N/A,,Overcast,30,2013-08-17 10:15:00
5:35 AM,62.6,55.4,77,30.14,10.0,NNE,5.8,-,N/A,,Overcast,30,2013-08-17 10:35:00
5:55 AM,62.6,55.4,77,30.15,10.0,NE,4.6,-,N/A,,Overcast,40,2013-08-17 10:55:00
6:15 AM,62.6,55.4,77,30.15,10.0,NE,5.8,-,N/A,,Overcast,40,2013-08-17 11:15:00
6:35 AM,62.6,55.4,77,30.16,10.0,NNE,4.6,-,N/A,,Overcast,20,2013-08-17 11:35:00
6:55 AM,62.6,55.4,77,30.16,10.0,NNE,6.9,-,N/A,,Overcast,20,2013-08-17 11:55:00
7:15 AM,62.6,57.2,82,30.16,10.0,NNE,5.8,-,N/A,,Overcast,30,2013-08-17 12:15:00
7:35 AM,62.6,55.4,77,30.17,10.0,NE,5.8,-,N/A,,Overcast,40,2013-08-17 12:35:00
7:55 AM,62.6,55.4,77,30.17,10.0,NNE,8.1,-,N/A,,Overcast,30,2013-08-17 12:55:00
8:15 AM,64.4,57.2,77,30.18,10.0,NE,5.8,-,N/A,,Overcast,40,2013-08-17 13:15:00
8:35 AM,64.4,57.2,77,30.18,10.0,NNE,4.6,-,N/A,,Overcast,30,2013-08-17 13:35:00
8:55 AM,64.4,57.2,77,30.18,10.0,NNE,4.6,-,N/A,,Overcast,20,2013-08-17 13:55:00
9:15 AM,66.2,57.2,73,30.18,10.0,NNE,4.6,-,N/A,,Overcast,30,2013-08-17 14:15:00
9:35 AM,66.2,59.0,78,30.19,10.0,ENE,4.6,-,N/A,,Overcast,60,2013-08-17 14:35:00
9:55 AM,66.2,59.0,78,30.19,10.0,ENE,3.5,-,N/A,,Overcast,60,2013-08-17 14:55:00
10:15 AM,66.2,59.0,78,30.19,10.0,NNE,4.6,-,N/A,,Overcast,30,2013-08-17 15:15:00
10:55 AM,69.8,60.8,73,30.20,10.0,East,6.9,-,N/A,,Mostly Cloudy,80,2013-08-17 15:55:00
11:15 AM,68.0,60.8,78,30.19,10.0,East,4.6,-,N/A,,Mostly Cloudy,80,2013-08-17 16:15:00
11:35 AM,69.8,60.8,73,30.19,10.0,NE,3.5,-,N/A,,Overcast,50,2013-08-17 16:35:00
11:55 AM,69.8,62.6,78,30.19,10.0,ENE,3.5,-,N/A,,Overcast,60,2013-08-17 16:55:00
12:15 PM,69.8,62.6,78,30.18,10.0,NE,3.5,-,N/A,,Overcast,50,2013-08-17 17:15:00
12:35 PM,69.8,62.6,78,30.18,10.0,NNE,3.5,-,N/A,,Overcast,20,2013-08-17 17:35:00
12:55 PM,71.6,62.6,73,30.17,10.0,NNE,3.5,-,N/A,,Overcast,20,2013-08-17 17:55:00
1:15 PM,71.6,62.6,73,30.16,10.0,NE,6.9,-,N/A,,Mostly Cloudy,40,2013-08-17 18:15:00
1:35 PM,71.6,62.6,73,30.16,10.0,NE,6.9,-,N/A,,Overcast,40,2013-08-17 18:35:00
1:55 PM,71.6,62.6,73,30.15,10.0,North,4.6,-,N/A,,Mostly Cloudy,360,2013-08-17 18:55:00
2:35 PM,75.2,62.6,65,30.14,10.0,NNE,6.9,-,N/A,,Mostly Cloudy,20,2013-08-17 19:35:00
2:55 PM,75.2,62.6,65,30.14,10.0,North,8.1,-,N/A,,Mostly Cloudy,360,2013-08-17 19:55:00
3:15 PM,75.2,62.6,65,30.14,10.0,NNE,6.9,-,N/A,,Overcast,20,2013-08-17 20:15:00
3:35 PM,75.2,60.8,61,30.14,10.0,NNE,8.1,-,N/A,,Overcast,30,2013-08-17 20:35:00
3:55 PM,75.2,62.6,65,30.13,10.0,North,5.8,-,N/A,,Overcast,10,2013-08-17 20:55:00
4:15 PM,75.2,62.6,65,30.13,10.0,NNE,5.8,-,N/A,,Overcast,30,2013-08-17 21:15:00
4:35 PM,75.2,62.6,65,30.13,10.0,NNE,5.8,-,N/A,,Mostly Cloudy,30,2013-08-17 21:35:00
4:55 PM,75.2,62.6,65,30.13,10.0,NE,5.8,-,N/A,,Partly Cloudy,40,2013-08-17 21:55:00
5:15 PM,75.2,62.6,65,30.13,10.0,NE,5.8,-,N/A,,Mostly Cloudy,40,2013-08-17 22:15:00
5:35 PM,75.2,62.6,65,30.13,10.0,NE,5.8,-,N/A,,Overcast,50,2013-08-17 22:35:00
5:55 PM,75.2,62.6,65,30.13,10.0,NE,6.9,-,N/A,,Overcast,40,2013-08-17 22:55:00
6:15 PM,73.4,62.6,69,30.13,10.0,NNE,5.8,-,N/A,,Overcast,30,2013-08-17 23:15:00
6:35 PM,73.4,64.4,73,30.12,10.0,NNE,5.8,-,N/A,,Mostly Cloudy,30,2013-08-17 23:35:00
6:55 PM,73.4,62.6,69,30.12,10.0,NNE,5.8,-,N/A,,Scattered Clouds,30,2013-08-17 23:55:00
7:15 PM,71.6,62.6,73,30.12,10.0,NNE,4.6,-,N/A,,Scattered Clouds,20,2013-08-18 00:15:00
7:35 PM,71.6,64.4,78,30.13,10.0,Calm,Calm,-,N/A,,Mostly Cloudy,0,2013-08-18 00:35:00
7:55 PM,69.8,64.4,83,30.13,10.0,North,3.5,-,N/A,,Overcast,10,2013-08-18 00:55:00
8:15 PM,71.6,64.4,78,30.13,10.0,Calm,Calm,-,N/A,,Overcast,0,2013-08-18 01:15:00
8:35 PM,69.8,64.4,83,30.13,10.0,Calm,Calm,-,N/A,,Mostly Cloudy,0,2013-08-18 01:35:00
8:55 PM,68.0,64.4,88,30.13,10.0,Calm,Calm,-,N/A,,Mostly Cloudy,0,2013-08-18 01:55:00
9:15 PM,66.2,62.6,88,30.13,5.0,Calm,Calm,-,N/A,,Partly Cloudy,0,2013-08-18 02:15:00
9:35 PM,64.4,62.6,94,30.13,3.0,Calm,Calm,-,N/A,,Clear,0,2013-08-18 02:35:00
9:55 PM,64.4,62.6,94,30.13,4.0,Calm,Calm,-,N/A,,Scattered Clouds,0,2013-08-18 02:55:00
10:15 PM,64.4,62.6,94,30.13,9.0,North,3.5,-,N/A,,Overcast,360,2013-08-18 03:15:00
10:35 PM,66.2,62.6,88,30.13,9.0,Calm,Calm,-,N/A,,Overcast,0,2013-08-18 03:35:00
10:55 PM,66.2,64.4,94,30.13,10.0,Calm,Calm,-,N/A,,Overcast,0,2013-08-18 03:55:00
11:15 PM,66.2,62.6,88,30.13,7.0,Calm,Calm,-,N/A,,Overcast,0,2013-08-18 04:15:00
11:35 PM,66.2,62.6,88,30.12,9.0,Calm,Calm,-,N/A,,Overcast,0,2013-08-18 04:35:00